Time,TemperatureF,DewpointF,PressureIn,WindDirection,WindDirectionDegrees,WindSpeedMPH,WindSpeedGustMPH,Humidity,HourlyPrecipIn,Conditions,Clouds,dailyrainin,SoftwareType,DateUTC
2013-01-29 00:02:00,62.8,53.1,29.36,South,171,4.0,8.0,54,0.00,,,0.00,meteohub,2013-01-29 06:02:00,
2013-01-29 00:07:00,62.8,53.1,29.36,ENE,78,4.0,8.0,54,0.00,,,0.00,meteohub,2013-01-29 06:07:00,
2013-01-29 00:12:00,62.6,53.1,29.36,ESE,115,3.0,8.0,54,0.00,,,0.00,meteohub,2013-01-29 06:12:00,
2013-01-29 00:18:00,62.6,52.3,29.36,SW,215,3.0,8.0,53,0.00,,,0.00,meteohub,2013-01-29 06:18:00,
2013-01-29 00:23:00,62.6,52.3,29.36,WSW,239,5.0,8.0,53,0.00,,,0.00,meteohub,2013-01-29 06:23:00,
2013-01-29 00:28:00,62.8,52.3,29.36,SSW,212,3.0,7.0,53,0.00,,,0.00,meteohub,2013-01-29 06:28:00,
2013-01-29 00:33:00,63.0,52.3,29.36,South,183,4.0,7.0,53,0.00,,,0.00,meteohub,2013-01-29 06:33:00,
2013-01-29 00:38:00,63.0,52.3,29.36,SW,222,4.0,7.0,53,0.00,,,0.00,meteohub,2013-01-29 06:38:00,
2013-01-29 00:43:00,63.1,52.7,29.36,SSE,153,3.0,6.0,54,0.00,,,0.00,meteohub,2013-01-29 06:43:00,
2013-01-29 00:48:00,63.1,52.7,29.36,SSE,155,4.0,6.0,54,0.00,,,0.00,meteohub,2013-01-29 06:48:00,
2013-01-29 00:53:00,63.5,52.2,29.36,SE,143,5.0,6.0,53,0.00,,,0.00,meteohub,2013-01-29 06:53:00,
2013-01-29 00:58:00,63.7,52.2,29.34,SW,216,8.0,12.0,53,0.00,,,0.00,meteohub,2013-01-29 06:58:00,
2013-01-29 01:03:00,64.0,52.2,29.34,SW,220,4.0,12.0,53,0.00,,,0.00,meteohub,2013-01-29 07:03:00,
2013-01-29 01:08:00,64.4,51.6,29.34,ENE,71,6.0,12.0,52,0.00,,,0.00,meteohub,2013-01-29 07:08:00,
2013-01-29 01:13:00,64.4,51.6,29.36,SW,216,5.0,11.0,52,0.00,,,0.00,meteohub,2013-01-29 07:13:00,
2013-01-29 01:19:00,64.6,51.6,29.36,SSW,198,6.0,9.0,52,0.00,,,0.00,meteohub,2013-01-29 07:19:00,
2013-01-29 01:24:00,64.6,51.6,29.36,SW,230,6.0,8.0,52,0.00,,,0.00,meteohub,2013-01-29 07:24:00,
2013-01-29 01:29:00,64.8,51.6,29.36,ENE,64,6.0,8.0,52,0.00,,,0.00,meteohub,2013-01-29 07:29:00,
2013-01-29 01:34:00,64.8,51.4,29.36,South,189,8.0,9.0,52,0.00,,,0.00,meteohub,2013-01-29 07:34:00,
2013-01-29 01:39:00,64.9,51.4,29.36,SSW,209,4.0,12.0,52,0.00,,,0.00,meteohub,2013-01-29 07:39:00,
2013-01-29 01:44:00,64.9,51.4,29.36,SSW,197,4.0,12.0,52,0.00,,,0.00,meteohub,2013-01-29 07:44:00,
2013-01-29 01:49:00,64.9,50.9,29.36,SSE,156,4.0,12.0,51,0.00,,,0.00,meteohub,2013-01-29 07:49:00,
2013-01-29 01:54:00,64.9,50.9,29.36,SSE,159,7.0,9.0,51,0.00,,,0.00,meteohub,2013-01-29 07:54:00,
2013-01-29 01:59:00,65.1,50.9,29.34,SSW,213,5.0,10.0,51,0.00,,,0.00,meteohub,2013-01-29 07:59:00,
2013-01-29 02:04:00,65.1,51.3,29.34,WSW,238,4.0,10.0,52,0.00,,,0.00,meteohub,2013-01-29 08:04:00,
2013-01-29 02:09:00,65.3,51.3,29.34,SSW,209,3.0,11.0,52,0.00,,,0.00,meteohub,2013-01-29 08:09:00,
2013-01-29 02:15:00,65.3,50.7,29.34,SSW,199,8.0,11.0,51,0.00,,,0.00,meteohub,2013-01-29 08:15:00,
2013-01-29 02:20:00,65.3,50.7,29.34,SSW,202,6.0,11.0,51,0.00,,,0.00,meteohub,2013-01-29 08:20:00,
2013-01-29 02:25:00,65.3,50.7,29.34,South,184,6.0,11.0,51,0.00,,,0.00,meteohub,2013-01-29 08:25:00,
2013-01-29 02:30:00,65.3,50.7,29.34,WSW,242,8.0,13.0,51,0.00,,,0.00,meteohub,2013-01-29 08:30:00,
2013-01-29 02:35:00,65.3,50.5,29.34,SSW,192,6.0,13.0,51,0.00,,,0.00,meteohub,2013-01-29 08:35:00,
2013-01-29 02:40:00,65.3,50.5,29.34,SSE,167,8.0,13.0,51,0.00,,,0.00,meteohub,2013-01-29 08:40:00,
2013-01-29 02:45:00,65.3,50.5,29.34,SSW,206,5.0,13.0,51,0.00,,,0.00,meteohub,2013-01-29 08:45:00,
2013-01-29 02:50:00,65.1,50.5,29.34,SSW,195,11.0,12.0,51,0.00,,,0.00,meteohub,2013-01-29 08:50:00,
2013-01-29 02:55:00,65.1,50.5,29.34,SW,222,8.0,12.0,51,0.00,,,0.00,meteohub,2013-01-29 08:55:00,
2013-01-29 03:00:00,65.1,50.5,29.31,South,177,6.0,11.0,51,0.00,,,0.00,meteohub,2013-01-29 09:00:00,
2013-01-29 03:05:00,64.9,50.5,29.31,SSW,194,5.0,11.0,51,0.00,,,0.00,meteohub,2013-01-29 09:05:00,
2013-01-29 03:10:00,64.9,50.0,29.31,SSW,208,4.0,10.0,50,0.00,,,0.00,meteohub,2013-01-29 09:10:00,
2013-01-29 03:16:00,64.9,49.8,29.31,WSW,240,5.0,11.0,50,0.00,,,0.00,meteohub,2013-01-29 09:16:00,
2013-01-29 03:21:00,64.8,49.8,29.31,South,178,4.0,11.0,50,0.00,,,0.00,meteohub,2013-01-29 09:21:00,
2013-01-29 03:26:00,64.8,49.8,29.31,South,173,4.0,11.0,50,0.00,,,0.00,meteohub,2013-01-29 09:26:00,
2013-01-29 03:31:00,64.8,49.8,29.31,South,187,6.0,11.0,50,0.00,,,0.00,meteohub,2013-01-29 09:31:00,
2013-01-29 03:36:00,64.8,49.8,29.31,SSW,204,5.0,11.0,50,0.00,,,0.00,meteohub,2013-01-29 09:36:00,
2013-01-29 03:41:00,64.8,49.6,29.31,SW,217,5.0,11.0,50,0.00,,,0.00,meteohub,2013-01-29 09:41:00,
2013-01-29 03:46:00,64.8,49.6,29.31,South,179,8.0,11.0,50,0.00,,,0.00,meteohub,2013-01-29 09:46:00,
2013-01-29 03:51:00,64.6,49.6,29.31,SW,235,6.0,10.0,50,0.00,,,0.00,meteohub,2013-01-29 09:51:00,
2013-01-29 03:56:00,64.6,49.6,29.31,SSW,192,7.0,10.0,50,0.00,,,0.00,meteohub,2013-01-29 09:56:00,
2013-01-29 04:01:00,64.6,49.6,29.31,SW,214,6.0,10.0,50,0.00,,,0.00,meteohub,2013-01-29 10:01:00,
2013-01-29 04:06:00,64.6,49.6,29.31,SSW,205,6.0,8.0,50,0.00,,,0.00,meteohub,2013-01-29 10:06:00,
2013-01-29 04:11:00,64.6,49.6,29.31,South,183,5.0,11.0,50,0.00,,,0.00,meteohub,2013-01-29 10:11:00,
2013-01-29 04:17:00,64.6,49.6,29.31,SSW,192,5.0,11.0,50,0.00,,,0.00,meteohub,2013-01-29 10:17:00,
2013-01-29 04:22:00,64.6,49.5,29.31,SW,225,5.0,11.0,50,0.00,,,0.00,meteohub,2013-01-29 10:22:00,
2013-01-29 04:27:00,64.8,49.5,29.28,SSE,160,4.0,14.0,50,0.00,,,0.00,meteohub,2013-01-29 10:27:00,
2013-01-29 04:32:00,64.6,49.5,29.28,West,267,4.0,14.0,50,0.00,,,0.00,meteohub,2013-01-29 10:32:00,
2013-01-29 04:37:00,64.8,49.5,29.28,SSW,198,8.0,14.0,50,0.00,,,0.00,meteohub,2013-01-29 10:37:00,
2013-01-29 04:42:00,64.8,49.5,29.28,SW,221,8.0,11.0,50,0.00,,,0.00,meteohub,2013-01-29 10:42:00,
2013-01-29 04:47:00,65.1,48.9,29.28,SSW,210,3.0,13.0,49,0.00,,,0.00,meteohub,2013-01-29 10:47:00,
2013-01-29 04:52:00,65.1,48.9,29.28,SSW,202,4.0,13.0,49,0.00,,,0.00,meteohub,2013-01-29 10:52:00,
2013-01-29 04:57:00,65.1,49.5,29.28,SW,222,4.0,13.0,50,0.00,,,0.00,meteohub,2013-01-29 10:57:00,
2013-01-29 05:02:00,65.1,48.9,29.28,SSW,212,5.0,9.0,49,0.00,,,0.00,meteohub,2013-01-29 11:02:00,
2013-01-29 05:07:00,65.3,48.9,29.28,SSW,199,4.0,9.0,49,0.00,,,0.00,meteohub,2013-01-29 11:07:00,
2013-01-29 05:13:00,65.3,48.7,29.28,SSW,208,7.0,9.0,49,0.00,,,0.00,meteohub,2013-01-29 11:13:00,
2013-01-29 05:18:00,65.3,48.7,29.28,SW,214,6.0,10.0,49,0.00,,,0.00,meteohub,2013-01-29 11:18:00,
2013-01-29 05:23:00,65.3,48.7,29.28,SW,214,6.0,10.0,49,0.00,,,0.00,meteohub,2013-01-29 11:23:00,
2013-01-29 05:28:00,65.3,48.7,29.28,SSW,193,6.0,10.0,49,0.00,,,0.00,meteohub,2013-01-29 11:28:00,
2013-01-29 05:33:00,65.3,48.7,29.28,South,184,4.0,11.0,49,0.00,,,0.00,meteohub,2013-01-29 11:33:00,
2013-01-29 05:38:00,65.1,48.7,29.28,SSW,193,6.0,11.0,49,0.00,,,0.00,meteohub,2013-01-29 11:38:00,
2013-01-29 05:43:00,65.1,48.7,29.28,SSW,208,5.0,11.0,49,0.00,,,0.00,meteohub,2013-01-29 11:43:00,
2013-01-29 05:48:00,65.1,48.7,29.28,South,188,7.0,11.0,49,0.00,,,0.00,meteohub,2013-01-29 11:48:00,
2013-01-29 05:53:00,65.1,48.7,29.28,SW,216,4.0,11.0,49,0.00,,,0.00,meteohub,2013-01-29 11:53:00,
2013-01-29 05:58:00,65.1,48.7,29.28,South,178,5.0,11.0,49,0.00,,,0.00,meteohub,2013-01-29 11:58:00,
2013-01-29 06:04:00,65.1,48.6,29.28,SSW,194,7.0,11.0,49,0.00,,,0.00,meteohub,2013-01-29 12:04:00,
2013-01-29 06:09:00,65.1,48.6,29.28,SSW,206,6.0,10.0,49,0.00,,,0.00,meteohub,2013-01-29 12:09:00,
2013-01-29 06:14:00,65.1,48.6,29.28,SSW,204,6.0,10.0,49,0.00,,,0.00,meteohub,2013-01-29 12:14:00,
2013-01-29 06:19:00,65.1,48.6,29.28,SSW,209,5.0,10.0,49,0.00,,,0.00,meteohub,2013-01-29 12:19:00,
2013-01-29 06:24:00,64.9,48.6,29.28,SW,233,4.0,8.0,49,0.00,,,0.00,meteohub,2013-01-29 12:24:00,
2013-01-29 06:29:00,65.1,48.6,29.28,SSW,197,6.0,8.0,49,0.00,,,0.00,meteohub,2013-01-29 12:29:00,
2013-01-29 06:34:00,65.1,48.6,29.28,SSW,213,4.0,11.0,49,0.00,,,0.00,meteohub,2013-01-29 12:34:00,
2013-01-29 06:39:00,64.9,48.6,29.28,SW,221,6.0,11.0,49,0.00,,,0.00,meteohub,2013-01-29 12:39:00,
2013-01-29 06:44:00,65.1,48.6,29.28,SW,225,4.0,11.0,49,0.00,,,0.00,meteohub,2013-01-29 12:44:00,
2013-01-29 06:50:00,65.1,48.6,29.28,SSW,193,5.0,11.0,49,0.00,,,0.00,meteohub,2013-01-29 12:50:00,
2013-01-29 06:55:00,65.1,48.6,29.28,South,184,8.0,11.0,49,0.00,,,0.00,meteohub,2013-01-29 12:55:00,
2013-01-29 07:00:00,65.1,48.6,29.28,SSW,204,4.0,11.0,49,0.00,,,0.00,meteohub,2013-01-29 13:00:00,
2013-01-29 07:05:00,65.1,48.6,29.28,South,183,3.0,8.0,49,0.00,,,0.00,meteohub,2013-01-29 13:05:00,
2013-01-29 07:10:00,65.1,48.6,29.28,SSW,204,4.0,8.0,49,0.00,,,0.00,meteohub,2013-01-29 13:10:00,
2013-01-29 07:15:00,65.1,48.6,29.28,SSW,197,6.0,8.0,49,0.00,,,0.00,meteohub,2013-01-29 13:15:00,
2013-01-29 07:20:00,65.3,48.7,29.28,South,191,6.0,8.0,49,0.00,,,0.00,meteohub,2013-01-29 13:20:00,
2013-01-29 07:25:00,65.5,48.7,29.28,SW,215,8.0,8.0,49,0.00,,,0.00,meteohub,2013-01-29 13:25:00,
2013-01-29 07:30:00,65.5,48.7,29.28,SSW,204,5.0,8.0,49,0.00,,,0.00,meteohub,2013-01-29 13:30:00,
2013-01-29 07:35:00,65.5,48.7,29.28,SSW,201,6.0,8.0,49,0.00,,,0.00,meteohub,2013-01-29 13:35:00,
2013-01-29 07:40:00,65.7,48.7,29.28,SW,216,5.0,8.0,49,0.00,,,0.00,meteohub,2013-01-29 13:40:00,
2013-01-29 07:45:00,65.8,48.7,29.28,SSW,201,6.0,9.0,49,0.00,,,0.00,meteohub,2013-01-29 13:45:00,
2013-01-29 07:51:00,65.8,48.2,29.28,SW,218,8.0,9.0,48,0.00,,,0.00,meteohub,2013-01-29 13:51:00,
2013-01-29 07:56:00,65.8,48.2,29.28,SW,221,2.0,9.0,48,0.00,,,0.00,meteohub,2013-01-29 13:56:00,
2013-01-29 08:01:00,65.8,48.2,29.25,SSW,208,8.0,9.0,48,0.00,,,0.00,meteohub,2013-01-29 14:01:00,
2013-01-29 08:06:00,66.0,48.2,29.25,SW,226,4.0,8.0,48,0.00,,,0.00,meteohub,2013-01-29 14:06:00,
2013-01-29 08:11:00,66.0,48.2,29.25,NE,52,3.0,8.0,48,0.00,,,0.00,meteohub,2013-01-29 14:11:00,
2013-01-29 08:16:00,66.0,48.0,29.28,SSW,194,3.0,11.0,48,0.00,,,0.00,meteohub,2013-01-29 14:16:00,
2013-01-29 08:21:00,66.2,48.0,29.28,South,186,6.0,11.0,48,0.00,,,0.00,meteohub,2013-01-29 14:21:00,
2013-01-29 08:26:00,66.2,48.2,29.28,SSW,194,4.0,11.0,48,0.00,,,0.00,meteohub,2013-01-29 14:26:00,
2013-01-29 08:31:00,66.4,48.2,29.25,SSW,208,8.0,11.0,48,0.00,,,0.00,meteohub,2013-01-29 14:31:00,
2013-01-29 08:36:00,66.4,48.2,29.25,SSW,197,6.0,12.0,48,0.00,,,0.00,meteohub,2013-01-29 14:36:00,
2013-01-29 08:42:00,66.4,48.2,29.25,SW,235,6.0,12.0,48,0.00,,,0.00,meteohub,2013-01-29 14:42:00,
2013-01-29 08:47:00,66.4,48.6,29.25,SSW,197,2.0,12.0,49,0.00,,,0.00,meteohub,2013-01-29 14:47:00,
2013-01-29 08:52:00,66.4,48.6,29.25,South,191,8.0,11.0,49,0.00,,,0.00,meteohub,2013-01-29 14:52:00,
2013-01-29 08:57:00,66.4,48.6,29.25,South,169,11.0,11.0,49,0.00,,,0.00,meteohub,2013-01-29 14:57:00,
2013-01-29 09:02:00,66.4,48.6,29.25,SSW,196,6.0,11.0,49,0.00,,,0.00,meteohub,2013-01-29 15:02:00,
2013-01-29 09:07:00,66.4,48.6,29.25,SW,218,6.0,11.0,49,0.00,,,0.00,meteohub,2013-01-29 15:07:00,
2013-01-29 09:12:00,66.4,48.6,29.25,SSW,211,4.0,11.0,49,0.00,,,0.00,meteohub,2013-01-29 15:12:00,
2013-01-29 09:17:00,66.4,48.6,29.25,SW,222,7.0,9.0,49,0.00,,,0.00,meteohub,2013-01-29 15:17:00,
2013-01-29 09:22:00,66.4,48.6,29.25,South,180,8.0,9.0,49,0.00,,,0.00,meteohub,2013-01-29 15:22:00,
2013-01-29 09:27:00,66.4,48.6,29.25,SE,137,6.0,11.0,49,0.00,,,0.00,meteohub,2013-01-29 15:27:00,
2013-01-29 09:33:00,66.6,48.6,29.25,South,191,6.0,11.0,49,0.00,,,0.00,meteohub,2013-01-29 15:33:00,
2013-01-29 09:38:00,66.4,48.6,29.25,SW,224,3.0,11.0,49,0.00,,,0.00,meteohub,2013-01-29 15:38:00,
2013-01-29 09:43:00,66.4,48.6,29.25,West,265,5.0,9.0,49,0.00,,,0.00,meteohub,2013-01-29 15:43:00,
2013-01-29 09:48:00,66.4,48.6,29.25,SW,226,6.0,11.0,49,0.00,,,0.00,meteohub,2013-01-29 15:48:00,
2013-01-29 09:53:00,66.4,48.6,29.25,SSW,204,8.0,11.0,49,0.00,,,0.00,meteohub,2013-01-29 15:53:00,
2013-01-29 09:58:00,66.6,48.6,29.25,SSW,194,7.0,9.0,49,0.00,,,0.00,meteohub,2013-01-29 15:58:00,
2013-01-29 10:03:00,66.6,48.6,29.25,SSW,212,12.0,12.0,49,0.00,,,0.00,meteohub,2013-01-29 16:03:00,
2013-01-29 10:08:00,66.6,48.7,29.25,South,189,6.0,10.0,49,0.00,,,0.00,meteohub,2013-01-29 16:08:00,
2013-01-29 10:13:00,66.7,48.7,29.25,SSW,205,5.0,12.0,49,0.00,,,0.00,meteohub,2013-01-29 16:13:00,
2013-01-29 10:18:00,66.7,48.7,29.25,SSW,203,4.0,12.0,49,0.00,,,0.00,meteohub,2013-01-29 16:18:00,
2013-01-29 10:24:00,66.7,48.7,29.25,SW,214,4.0,11.0,49,0.00,,,0.00,meteohub,2013-01-29 16:24:00,
2013-01-29 10:29:00,66.7,48.7,29.22,South,184,3.0,11.0,49,0.00,,,0.00,meteohub,2013-01-29 16:29:00,
2013-01-29 10:34:00,66.7,48.7,29.22,SSW,198,8.0,9.0,49,0.00,,,0.00,meteohub,2013-01-29 16:34:00,
2013-01-29 10:39:00,66.6,48.6,29.22,SSW,195,8.0,11.0,49,0.00,,,0.00,meteohub,2013-01-29 16:39:00,
2013-01-29 10:44:00,66.6,48.6,29.22,South,190,8.0,11.0,49,0.00,,,0.00,meteohub,2013-01-29 16:44:00,
2013-01-29 10:49:00,66.6,48.7,29.22,SE,130,4.0,11.0,49,0.00,,,0.00,meteohub,2013-01-29 16:49:00,
2013-01-29 10:54:00,66.6,48.7,29.22,SW,236,8.0,11.0,49,0.00,,,0.00,meteohub,2013-01-29 16:54:00,
2013-01-29 10:59:00,66.6,48.7,29.22,SW,225,8.0,11.0,49,0.00,,,0.00,meteohub,2013-01-29 16:59:00,
2013-01-29 11:04:00,66.4,48.7,29.22,SSW,206,8.0,11.0,49,0.00,,,0.00,meteohub,2013-01-29 17:04:00,
2013-01-29 11:09:00,66.4,48.7,29.22,SW,226,6.0,11.0,49,0.00,,,0.00,meteohub,2013-01-29 17:09:00,
2013-01-29 11:15:00,66.4,48.6,29.22,SSW,206,3.0,11.0,49,0.00,,,0.00,meteohub,2013-01-29 17:15:00,
2013-01-29 11:20:00,66.4,48.6,29.22,SW,227,6.0,9.0,49,0.00,,,0.00,meteohub,2013-01-29 17:20:00,
2013-01-29 11:25:00,66.4,48.6,29.22,SW,217,3.0,8.0,49,0.00,,,0.00,meteohub,2013-01-29 17:25:00,
2013-01-29 11:30:00,66.2,48.6,29.19,SSW,194,4.0,8.0,49,0.00,,,0.00,meteohub,2013-01-29 17:30:00,
2013-01-29 11:35:00,66.2,48.6,29.19,SW,215,6.0,11.0,49,0.00,,,0.00,meteohub,2013-01-29 17:35:00,
2013-01-29 11:40:00,66.2,48.6,29.19,East,88,4.0,11.0,49,0.00,,,0.00,meteohub,2013-01-29 17:40:00,
2013-01-29 11:45:00,66.4,48.6,29.19,South,187,5.0,9.0,49,0.00,,,0.00,meteohub,2013-01-29 17:45:00,
2013-01-29 11:50:00,66.4,48.6,29.19,South,189,6.0,9.0,49,0.00,,,0.00,meteohub,2013-01-29 17:50:00,
2013-01-29 11:55:00,66.4,48.6,29.19,SSW,206,6.0,9.0,49,0.00,,,0.00,meteohub,2013-01-29 17:55:00,
2013-01-29 12:00:00,66.4,48.6,29.16,SSW,201,6.0,10.0,49,0.00,,,0.00,meteohub,2013-01-29 18:00:00,
2013-01-29 12:06:00,66.4,48.6,29.16,SW,218,6.0,10.0,49,0.00,,,0.00,meteohub,2013-01-29 18:06:00,
2013-01-29 12:11:00,66.6,48.7,29.16,SSW,203,6.0,9.0,49,0.00,,,0.00,meteohub,2013-01-29 18:11:00,
2013-01-29 12:16:00,66.6,48.7,29.16,SSW,211,8.0,9.0,49,0.00,,,0.00,meteohub,2013-01-29 18:16:00,
2013-01-29 12:21:00,66.6,48.7,29.16,SSW,194,8.0,13.0,49,0.00,,,0.00,meteohub,2013-01-29 18:21:00,
2013-01-29 12:26:00,66.6,48.6,29.16,SSW,202,6.0,13.0,49,0.00,,,0.00,meteohub,2013-01-29 18:26:00,
2013-01-29 12:31:00,66.6,48.6,29.16,South,189,8.0,13.0,49,0.00,,,0.00,meteohub,2013-01-29 18:31:00,
2013-01-29 12:36:00,66.7,48.6,29.16,SW,217,6.0,9.0,49,0.00,,,0.00,meteohub,2013-01-29 18:36:00,
2013-01-29 12:42:00,66.6,48.6,29.16,SSW,199,5.0,9.0,49,0.00,,,0.00,meteohub,2013-01-29 18:42:00,
2013-01-29 12:47:00,66.6,48.7,29.13,South,190,6.0,13.0,49,0.00,,,0.00,meteohub,2013-01-29 18:47:00,
2013-01-29 12:52:00,66.6,48.7,29.13,South,189,8.0,13.0,49,0.00,,,0.00,meteohub,2013-01-29 18:52:00,
2013-01-29 12:57:00,66.4,48.7,29.13,SSW,193,9.0,13.0,49,0.00,,,0.00,meteohub,2013-01-29 18:57:00,
2013-01-29 13:02:00,66.4,48.7,29.13,SW,216,8.0,10.0,49,0.00,,,0.00,meteohub,2013-01-29 19:02:00,
2013-01-29 13:07:00,66.4,48.6,29.13,SW,215,6.0,9.0,49,0.00,,,0.00,meteohub,2013-01-29 19:07:00,
2013-01-29 13:12:00,66.4,48.6,29.10,SSE,163,6.0,9.0,49,0.00,,,0.00,meteohub,2013-01-29 19:12:00,
2013-01-29 13:17:00,66.4,48.6,29.10,SW,219,8.0,9.0,49,0.00,,,0.00,meteohub,2013-01-29 19:17:00,
2013-01-29 13:22:00,66.4,48.6,29.10,SW,233,7.0,11.0,49,0.00,,,0.00,meteohub,2013-01-29 19:22:00,
2013-01-29 13:27:00,66.4,48.6,29.10,SSW,197,10.0,11.0,49,0.00,,,0.00,meteohub,2013-01-29 19:27:00,
2013-01-29 13:32:00,66.6,48.6,29.10,SSW,205,8.0,11.0,49,0.00,,,0.00,meteohub,2013-01-29 19:32:00,
2013-01-29 13:37:00,66.7,48.7,29.10,SSW,209,6.0,11.0,49,0.00,,,0.00,meteohub,2013-01-29 19:37:00,
2013-01-29 13:43:00,66.7,48.7,29.07,SSW,194,8.0,11.0,49,0.00,,,0.00,meteohub,2013-01-29 19:43:00,
2013-01-29 13:48:00,66.9,48.6,29.07,SW,217,6.0,11.0,49,0.00,,,0.00,meteohub,2013-01-29 19:48:00,
2013-01-29 13:53:00,67.1,48.6,29.07,SW,227,4.0,11.0,49,0.00,,,0.00,meteohub,2013-01-29 19:53:00,
2013-01-29 13:58:00,67.3,48.6,29.07,SSW,198,6.0,11.0,49,0.00,,,0.00,meteohub,2013-01-29 19:58:00,
2013-01-29 14:03:00,67.3,48.7,29.07,SW,226,6.0,11.0,49,0.00,,,0.00,meteohub,2013-01-29 20:03:00,
2013-01-29 14:05:00,67.5,48.7,29.07,SSW,211,6.0,11.0,49,0.00,,,0.00,meteohub,2013-01-29 20:05:00,
2013-01-29 14:11:00,67.5,48.7,29.07,SSW,203,6.0,12.0,49,0.00,,,0.00,meteohub,2013-01-29 20:11:00,
2013-01-29 14:16:00,67.6,48.7,29.04,SW,216,8.0,12.0,49,0.00,,,0.00,meteohub,2013-01-29 20:16:00,
2013-01-29 14:21:00,67.8,48.9,29.04,SSW,202,9.0,9.0,49,0.00,,,0.00,meteohub,2013-01-29 20:21:00,
2013-01-29 14:26:00,67.8,48.9,29.04,SSW,199,9.0,9.0,49,0.00,,,0.00,meteohub,2013-01-29 20:26:00,
2013-01-29 14:31:00,68.0,48.9,29.04,SW,231,5.0,11.0,49,0.00,,,0.00,meteohub,2013-01-29 20:31:00,
2013-01-29 14:36:00,68.0,48.9,29.04,SW,229,4.0,11.0,49,0.00,,,0.00,meteohub,2013-01-29 20:36:00,
2013-01-29 14:41:00,68.0,48.9,29.04,SSW,200,6.0,11.0,49,0.00,,,0.00,meteohub,2013-01-29 20:41:00,
2013-01-29 14:47:00,68.0,48.7,29.04,SW,216,4.0,9.0,49,0.00,,,0.00,meteohub,2013-01-29 20:47:00,
2013-01-29 14:52:00,68.2,48.9,29.04,SSW,206,10.0,10.0,49,0.00,,,0.00,meteohub,2013-01-29 20:52:00,
2013-01-29 14:57:00,68.2,48.9,29.04,SSW,208,11.0,11.0,49,0.00,,,0.00,meteohub,2013-01-29 20:57:00,
2013-01-29 15:02:00,68.2,48.9,29.04,South,182,8.0,12.0,49,0.00,,,0.00,meteohub,2013-01-29 21:02:00,
2013-01-29 15:07:00,68.2,48.9,29.04,SSW,196,6.0,12.0,49,0.00,,,0.00,meteohub,2013-01-29 21:07:00,
2013-01-29 15:12:00,68.2,48.9,29.04,SW,214,3.0,12.0,49,0.00,,,0.00,meteohub,2013-01-29 21:12:00,
2013-01-29 15:17:00,68.2,48.9,29.04,SSW,205,6.0,9.0,49,0.00,,,0.00,meteohub,2013-01-29 21:17:00,
2013-01-29 15:22:00,68.2,48.9,29.04,South,182,8.0,13.0,49,0.00,,,0.00,meteohub,2013-01-29 21:22:00,
2013-01-29 15:27:00,68.2,48.9,29.01,SSW,210,6.0,13.0,49,0.00,,,0.00,meteohub,2013-01-29 21:27:00,
2013-01-29 15:33:00,68.2,48.9,29.01,SW,221,8.0,11.0,49,0.00,,,0.00,meteohub,2013-01-29 21:33:00,
2013-01-29 15:38:00,68.4,48.9,29.01,South,177,8.0,14.0,49,0.00,,,0.00,meteohub,2013-01-29 21:38:00,
2013-01-29 15:43:00,68.4,48.9,29.01,NNW,328,5.0,14.0,49,0.00,,,0.00,meteohub,2013-01-29 21:43:00,
2013-01-29 15:48:00,68.2,48.9,29.01,SW,229,4.0,14.0,49,0.00,,,0.00,meteohub,2013-01-29 21:48:00,
2013-01-29 15:53:00,68.2,49.1,29.01,SW,218,8.0,11.0,49,0.00,,,0.00,meteohub,2013-01-29 21:53:00,
2013-01-29 15:58:00,68.2,49.1,29.01,SSW,203,5.0,12.0,49,0.00,,,0.00,meteohub,2013-01-29 21:58:00,
2013-01-29 16:03:00,68.2,49.1,29.01,SSW,204,6.0,12.0,49,0.00,,,0.00,meteohub,2013-01-29 22:03:00,
2013-01-29 16:08:00,68.2,49.1,29.01,SW,214,6.0,13.0,49,0.00,,,0.00,meteohub,2013-01-29 22:08:00,
2013-01-29 16:13:00,68.2,49.1,28.98,SE,144,3.0,13.0,49,0.00,,,0.00,meteohub,2013-01-29 22:13:00,
2013-01-29 16:18:00,68.2,49.1,28.98,SSW,207,4.0,13.0,49,0.00,,,0.00,meteohub,2013-01-29 22:18:00,
2013-01-29 16:24:00,68.2,49.1,28.98,SE,125,6.0,16.0,49,0.00,,,0.00,meteohub,2013-01-29 22:24:00,
2013-01-29 16:29:00,68.2,49.1,28.98,SSW,193,6.0,16.0,49,0.00,,,0.00,meteohub,2013-01-29 22:29:00,
2013-01-29 16:34:00,68.4,49.1,28.98,SSW,210,8.0,16.0,49,0.00,,,0.00,meteohub,2013-01-29 22:34:00,
2013-01-29 16:39:00,68.5,49.1,28.98,SE,140,4.0,15.0,49,0.00,,,0.00,meteohub,2013-01-29 22:39:00,
2013-01-29 16:44:00,68.5,49.1,28.95,ENE,62,6.0,15.0,49,0.00,,,0.00,meteohub,2013-01-29 22:44:00,
2013-01-29 16:49:00,68.5,49.1,28.95,WSW,239,11.0,15.0,49,0.00,,,0.00,meteohub,2013-01-29 22:49:00,
2013-01-29 16:54:00,68.5,49.1,28.95,SSW,199,12.0,15.0,49,0.00,,,0.00,meteohub,2013-01-29 22:54:00,
2013-01-29 16:59:00,68.5,49.1,28.95,SW,220,4.0,15.0,49,0.00,,,0.00,meteohub,2013-01-29 22:59:00,
2013-01-29 17:04:00,68.5,49.1,28.95,SSW,205,6.0,15.0,49,0.00,,,0.00,meteohub,2013-01-29 23:04:00,
2013-01-29 17:09:00,67.8,49.1,28.95,NW,304,3.0,13.0,49,0.00,,,0.00,meteohub,2013-01-29 23:09:00,
2013-01-29 17:15:00,64.6,49.1,29.01,SW,221,6.0,15.0,49,0.00,,,0.00,meteohub,2013-01-29 23:15:00,
2013-01-29 17:20:00,61.3,49.1,29.01,WSW,248,3.0,15.0,49,0.13,,,0.29,meteohub,2013-01-29 23:20:00,
2013-01-29 17:25:00,59.4,49.1,29.01,WNW,290,2.0,15.0,49,0.37,,,0.46,meteohub,2013-01-29 23:25:00,
2013-01-29 17:30:00,58.6,49.1,29.07,WNW,286,5.0,10.0,49,0.54,,,0.54,meteohub,2013-01-29 23:30:00,
2013-01-29 17:35:00,57.9,49.1,29.07,North,4,7.0,10.0,49,0.58,,,0.58,meteohub,2013-01-29 23:35:00,
2013-01-29 17:40:00,57.6,49.1,29.07,North,357,3.0,8.0,49,0.62,,,0.62,meteohub,2013-01-29 23:40:00,
2013-01-29 17:45:00,57.4,49.1,29.04,NNW,334,3.0,8.0,49,0.67,,,0.67,meteohub,2013-01-29 23:45:00,
2013-01-29 17:50:00,57.2,49.1,29.04,NNE,32,3.0,8.0,49,0.67,,,0.67,meteohub,2013-01-29 23:50:00,
2013-01-29 17:56:00,57.2,49.1,29.04,North,353,5.0,8.0,49,0.71,,,0.71,meteohub,2013-01-29 23:56:00,
2013-01-29 18:01:00,57.0,49.1,29.04,NNE,15,3.0,6.0,49,0.71,,,0.71,meteohub,2013-01-30 00:01:00,
2013-01-29 18:06:00,57.0,49.1,29.04,North,357,3.0,6.0,49,0.75,,,0.75,meteohub,2013-01-30 00:06:00,
2013-01-29 18:11:00,57.0,49.1,29.04,ENE,64,5.0,5.0,49,0.75,,,0.75,meteohub,2013-01-30 00:11:00,
2013-01-29 18:16:00,56.8,48.6,29.01,NNE,28,4.0,5.0,48,0.50,,,0.79,meteohub,2013-01-30 00:16:00,
2013-01-29 18:21:00,56.8,48.7,29.01,NNE,16,6.0,6.0,48,0.42,,,0.79,meteohub,2013-01-30 00:21:00,
2013-01-29 18:26:00,56.7,49.3,29.01,ENE,72,3.0,8.0,49,0.29,,,0.79,meteohub,2013-01-30 00:26:00,
2013-01-29 18:32:00,56.7,49.3,29.01,NE,52,5.0,8.0,49,0.25,,,0.83,meteohub,2013-01-30 00:32:00,
2013-01-29 18:37:00,56.7,50.0,29.01,NE,35,6.0,8.0,50,0.25,,,0.83,meteohub,2013-01-30 00:37:00,
2013-01-29 18:42:00,56.5,50.0,28.98,NE,40,5.0,8.0,50,0.21,,,0.83,meteohub,2013-01-30 00:42:00,
2013-01-29 18:47:00,56.5,49.5,28.98,NNE,20,6.0,9.0,49,0.17,,,0.83,meteohub,2013-01-30 00:47:00,
2013-01-29 18:52:00,56.5,49.5,28.98,West,274,3.0,9.0,49,0.17,,,0.83,meteohub,2013-01-30 00:52:00,
2013-01-29 18:57:00,56.5,49.5,28.98,NE,46,6.0,9.0,49,0.12,,,0.83,meteohub,2013-01-30 00:57:00,
2013-01-29 19:02:00,56.3,49.5,28.98,North,3,3.0,8.0,49,0.12,,,0.83,meteohub,2013-01-30 01:02:00,
2013-01-29 19:07:00,56.3,49.5,28.98,NNW,346,4.0,8.0,49,0.13,,,0.87,meteohub,2013-01-30 01:07:00,
2013-01-29 19:12:00,56.3,49.5,29.01,North,353,4.0,8.0,49,0.21,,,0.96,meteohub,2013-01-30 01:12:00,
2013-01-29 19:17:00,56.3,49.5,29.01,North,353,0.0,8.0,49,0.20,,,1.00,meteohub,2013-01-30 01:17:00,
2013-01-29 19:23:00,56.3,49.5,29.01,WNW,289,0.0,8.0,49,0.25,,,1.04,meteohub,2013-01-30 01:23:00,
2013-01-29 19:28:00,56.3,49.5,29.01,WNW,288,0.0,5.0,49,0.33,,,1.16,meteohub,2013-01-30 01:28:00,
2013-01-29 19:33:00,56.1,49.5,29.01,North,353,5.0,5.0,49,0.42,,,1.25,meteohub,2013-01-30 01:33:00,
2013-01-29 19:38:00,56.1,49.6,29.01,NW,307,0.0,8.0,49,0.54,,,1.37,meteohub,2013-01-30 01:38:00,
2013-01-29 19:43:00,55.9,49.6,29.01,North,357,4.0,8.0,49,0.58,,,1.41,meteohub,2013-01-30 01:43:00,
2013-01-29 19:48:00,55.9,49.5,29.01,WNW,292,3.0,8.0,49,0.62,,,1.45,meteohub,2013-01-30 01:48:00,
2013-01-29 19:53:00,55.8,49.5,29.01,WNW,299,4.0,6.0,49,0.75,,,1.58,meteohub,2013-01-30 01:53:00,
2013-01-29 19:58:00,55.8,49.5,29.01,North,3,5.0,6.0,49,0.83,,,1.62,meteohub,2013-01-30 01:58:00,
2013-01-29 20:03:00,55.8,49.5,29.01,NNW,343,4.0,6.0,49,0.79,,,1.66,meteohub,2013-01-30 02:03:00,
2013-01-29 20:08:00,55.8,49.5,29.01,North,357,4.0,6.0,49,0.83,,,1.74,meteohub,2013-01-30 02:08:00,
2013-01-29 20:13:00,55.6,49.5,29.01,NW,312,4.0,9.0,49,0.79,,,1.74,meteohub,2013-01-30 02:13:00,
2013-01-29 20:19:00,55.8,49.5,29.01,NW,313,4.0,9.0,49,0.75,,,1.79,meteohub,2013-01-30 02:19:00,
2013-01-29 20:24:00,55.6,48.9,29.01,NNW,343,3.0,9.0,48,0.79,,,1.87,meteohub,2013-01-30 02:24:00,
2013-01-29 20:29:00,55.6,48.9,29.04,NNW,343,3.0,6.0,48,0.67,,,1.87,meteohub,2013-01-30 02:29:00,
2013-01-29 20:34:00,55.6,49.5,29.04,NNW,333,5.0,6.0,49,0.58,,,1.91,meteohub,2013-01-30 02:34:00,
2013-01-29 20:39:00,55.6,49.6,29.04,North,0,4.0,6.0,49,0.58,,,1.95,meteohub,2013-01-30 02:39:00,
2013-01-29 20:44:00,55.4,49.6,29.04,North,7,2.0,6.0,49,0.50,,,1.95,meteohub,2013-01-30 02:44:00,
2013-01-29 20:49:00,55.4,49.6,29.04,North,357,5.0,7.0,49,0.46,,,1.99,meteohub,2013-01-30 02:49:00,
2013-01-29 20:54:00,55.2,49.6,29.04,NNE,19,4.0,7.0,49,0.37,,,1.99,meteohub,2013-01-30 02:54:00,
2013-01-29 20:59:00,55.2,49.6,29.04,West,260,0.0,6.0,49,0.37,,,2.04,meteohub,2013-01-30 02:59:00,
2013-01-29 21:04:00,55.2,49.6,29.04,WSW,241,0.0,6.0,49,0.37,,,2.07,meteohub,2013-01-30 03:04:00,
2013-01-29 21:09:00,55.0,49.6,29.04,North,357,3.0,6.0,49,0.37,,,2.12,meteohub,2013-01-30 03:09:00,
2013-01-29 21:14:00,55.0,49.5,29.04,North,0,4.0,4.0,49,0.33,,,2.12,meteohub,2013-01-30 03:14:00,
2013-01-29 21:20:00,54.9,49.5,29.04,North,5,0.0,3.0,49,0.33,,,2.16,meteohub,2013-01-30 03:20:00,
2013-01-29 21:25:00,54.9,49.5,29.04,NW,307,0.0,4.0,49,0.33,,,2.20,meteohub,2013-01-30 03:25:00,
2013-01-29 21:30:00,54.7,49.5,29.04,North,353,3.0,4.0,49,0.29,,,2.20,meteohub,2013-01-30 03:30:00,
2013-01-29 21:35:00,54.7,49.5,29.04,North,0,4.0,4.0,49,0.29,,,2.20,meteohub,2013-01-30 03:35:00,
2013-01-29 21:40:00,54.7,49.3,29.04,North,357,3.0,4.0,49,0.29,,,2.24,meteohub,2013-01-30 03:40:00,
2013-01-29 21:45:00,54.7,49.3,29.01,North,357,0.0,5.0,49,0.25,,,2.24,meteohub,2013-01-30 03:45:00,
2013-01-29 21:50:00,54.7,49.3,29.01,North,357,0.0,5.0,49,0.20,,,2.24,meteohub,2013-01-30 03:50:00,
2013-01-29 21:55:00,54.5,48.6,29.01,North,357,0.0,5.0,48,0.20,,,2.24,meteohub,2013-01-30 03:55:00,
2013-01-29 22:00:00,54.5,48.6,29.01,NNE,26,0.0,4.0,48,0.17,,,2.24,meteohub,2013-01-30 04:00:00,
2013-01-29 22:05:00,54.5,49.1,29.01,NW,309,0.0,4.0,49,0.12,,,2.24,meteohub,2013-01-30 04:05:00,
2013-01-29 22:11:00,54.5,48.6,29.01,NW,309,0.0,4.0,48,0.13,,,2.28,meteohub,2013-01-30 04:11:00,
2013-01-29 22:16:00,54.5,48.6,29.01,NW,309,0.0,0.0,48,0.08,,,2.28,meteohub,2013-01-30 04:16:00,
2013-01-29 22:21:00,54.3,48.6,29.01,NW,309,0.0,0.0,48,0.08,,,2.28,meteohub,2013-01-30 04:21:00,
2013-01-29 22:26:00,54.3,48.6,29.01,NW,309,0.0,0.0,48,0.08,,,2.28,meteohub,2013-01-30 04:26:00,
2013-01-29 22:31:00,54.3,48.4,28.98,NW,309,0.0,0.0,48,0.08,,,2.28,meteohub,2013-01-30 04:31:00,
2013-01-29 22:36:00,54.1,48.4,28.98,NW,309,0.0,0.0,48,0.08,,,2.32,meteohub,2013-01-30 04:36:00,
2013-01-29 22:41:00,54.0,48.4,28.98,NW,309,0.0,0.0,48,0.08,,,2.32,meteohub,2013-01-30 04:41:00,
2013-01-29 22:46:00,54.0,48.4,28.98,NE,38,3.0,0.0,48,0.08,,,2.32,meteohub,2013-01-30 04:46:00,
2013-01-29 22:51:00,54.1,48.4,28.98,NE,47,4.0,4.0,48,0.08,,,2.32,meteohub,2013-01-30 04:51:00,
2013-01-29 22:56:00,54.1,48.4,28.98,NE,47,0.0,4.0,48,0.08,,,2.32,meteohub,2013-01-30 04:56:00,
2013-01-29 23:00:00,54.1,48.4,28.95,NE,47,0.0,4.0,48,0.08,,,2.32,meteohub,2013-01-30 05:00:00,
2013-01-29 23:02:00,54.0,48.4,28.95,NE,47,0.0,4.0,48,0.08,,,2.32,meteohub,2013-01-30 05:02:00,
2013-01-29 23:03:00,54.0,48.4,28.95,NE,47,0.0,4.0,48,0.08,,,2.32,meteohub,2013-01-30 05:03:00,
2013-01-29 23:04:00,54.0,48.4,28.95,NE,47,0.0,4.0,48,0.08,,,2.32,meteohub,2013-01-30 05:04:00,
2013-01-29 23:09:00,54.0,48.4,28.95,NE,47,0.0,4.0,48,0.04,,,2.32,meteohub,2013-01-30 05:09:00,
2013-01-29 23:14:00,54.0,48.4,28.95,SE,127,4.0,0.0,48,0.04,,,2.32,meteohub,2013-01-30 05:14:00,
2013-01-29 23:20:00,54.0,48.4,28.95,ESE,109,0.0,0.0,48,0.04,,,2.32,meteohub,2013-01-30 05:20:00,
2013-01-29 23:25:00,54.0,48.4,28.95,SSW,196,3.0,4.0,48,0.04,,,2.32,meteohub,2013-01-30 05:25:00,
2013-01-29 23:30:00,54.0,48.4,28.98,ESE,114,4.0,4.0,48,0.04,,,2.32,meteohub,2013-01-30 05:30:00,
2013-01-29 23:35:00,54.0,48.4,28.98,ENE,75,0.0,4.0,48,0.00,,,2.32,meteohub,2013-01-30 05:35:00,
2013-01-29 23:40:00,54.0,48.4,28.98,East,100,0.0,6.0,48,0.00,,,2.32,meteohub,2013-01-30 05:40:00,
2013-01-29 23:45:00,54.0,48.4,28.98,SE,141,3.0,6.0,48,0.00,,,2.32,meteohub,2013-01-30 05:45:00,
2013-01-29 23:50:00,54.0,48.4,28.98,East,90,0.0,5.0,48,0.00,,,2.32,meteohub,2013-01-30 05:50:00,
2013-01-29 23:55:00,53.8,48.4,28.98,ESE,121,4.0,6.0,48,0.00,,,2.32,meteohub,2013-01-30 05:55:00,